TimeHST,TemperatureF,Dew PointF,Humidity,Sea Level PressureIn,VisibilityMPH,Wind Direction,Wind SpeedMPH,Gust SpeedMPH,PrecipitationIn,Events,Conditions,WindDirDegrees,DateUTC
12:56 AM,75.0,69.1,82,29.91,10.0,South,11.5,-,N/A,,Clear,190,2013-03-09 10:56:00
1:56 AM,75.0,69.1,82,29.89,10.0,SSW,13.8,-,N/A,,Overcast,200,2013-03-09 11:56:00
2:56 AM,75.0,66.9,76,29.87,10.0,SSW,15.0,-,N/A,,Mostly Cloudy,210,2013-03-09 12:56:00
3:56 AM,75.0,69.1,82,29.85,10.0,South,10.4,-,N/A,,Mostly Cloudy,190,2013-03-09 13:56:00
4:56 AM,73.9,69.1,85,29.85,10.0,SSW,12.7,-,N/A,,Scattered Clouds,210,2013-03-09 14:56:00
5:56 AM,73.9,68.0,82,29.87,10.0,SW,11.5,-,N/A,,Partly Cloudy,230,2013-03-09 15:56:00
6:56 AM,75.0,66.0,73,29.88,10.0,SW,10.4,-,N/A,,Mostly Cloudy,220,2013-03-09 16:56:00
7:56 AM,75.9,70.0,82,29.90,10.0,SSW,8.1,-,N/A,,Scattered Clouds,210,2013-03-09 17:56:00
8:56 AM,73.9,71.1,91,29.92,10.0,WNW,11.5,-,N/A,,Scattered Clouds,290,2013-03-09 18:56:00
9:28 AM,71.6,66.2,83,29.93,6.2,West,11.5,-,0.03,Rain,Rain,280,2013-03-09 19:28:00
9:40 AM,71.6,66.2,83,29.93,10.0,West,15.0,-,0.03,Rain,Light Rain,280,2013-03-09 19:40:00
9:56 AM,72.0,68.0,87,29.94,10.0,West,13.8,-,0.04,,Overcast,280,2013-03-09 19:56:00
10:56 AM,75.0,66.0,73,29.93,10.0,NW,6.9,-,N/A,,Scattered Clouds,320,2013-03-09 20:56:00
11:56 AM,73.0,66.0,79,29.92,10.0,Calm,Calm,-,0.00,Rain,Light Rain,0,2013-03-09 21:56:00
12:56 PM,73.9,64.9,73,29.89,10.0,SSE,5.8,-,0.01,Rain,Light Rain,160,2013-03-09 22:56:00
1:56 PM,70.0,66.0,87,29.88,10.0,SSE,8.1,-,0.04,Rain,Light Rain,150,2013-03-09 23:56:00
2:21 PM,-9999,-9999,N/A,29.87,10.0,SSE,9.2,-,0.00,Rain,Light Rain,160,2013-03-10 00:21:00
2:31 PM,-9999,-9999,N/A,29.87,10.0,South,10.4,19.6,0.00,,Overcast,170,2013-03-10 00:31:00
2:38 PM,-9999,-9999,N/A,29.87,10.0,South,9.2,18.4,0.01,Rain,Light Rain,170,2013-03-10 00:38:00
2:56 PM,-9999,-9999,N/A,29.87,10.0,SSE,10.4,-,0.01,Rain,Light Rain,150,2013-03-10 00:56:00
3:56 PM,-9999,-9999,N/A,29.87,10.0,SSE,6.9,-,0.00,,Overcast,160,2013-03-10 01:56:00
4:14 PM,-9999,-9999,N/A,29.86,10.0,SSE,5.8,-,N/A,,Overcast,150,2013-03-10 02:14:00
4:56 PM,71.1,66.9,87,29.87,10.0,SE,3.5,-,0.00,Rain,Light Rain,140,2013-03-10 02:56:00
5:42 PM,-9999,-9999,N/A,29.87,10.0,ESE,6.9,-,0.00,,Overcast,120,2013-03-10 03:42:00
5:56 PM,-9999,-9999,N/A,29.88,10.0,SSE,4.6,-,0.00,,Overcast,150,2013-03-10 03:56:00
6:18 PM,-9999,-9999,N/A,29.87,10.0,South,3.5,-,N/A,,Overcast,170,2013-03-10 04:18:00
6:56 PM,-9999,-9999,N/A,29.89,10.0,SE,4.6,-,N/A,,Overcast,130,2013-03-10 04:56:00
7:09 PM,-9999,-9999,N/A,29.88,10.0,SSE,3.5,-,N/A,,Overcast,160,2013-03-10 05:09:00
7:39 PM,71.6,66.2,83,29.88,10.0,SSW,8.1,-,N/A,,Overcast,210,2013-03-10 05:39:00
7:56 PM,73.0,70.0,90,29.89,10.0,SW,9.2,-,N/A,,Overcast,220,2013-03-10 05:56:00
8:13 PM,73.4,66.2,78,29.89,10.0,WSW,8.1,-,N/A,,Overcast,240,2013-03-10 06:13:00
8:56 PM,72.0,69.1,91,29.91,10.0,West,12.7,-,N/A,,Overcast,280,2013-03-10 06:56:00
9:23 PM,71.6,66.2,83,29.91,10.0,WNW,5.8,-,N/A,,Overcast,290,2013-03-10 07:23:00
9:36 PM,71.6,66.2,83,29.91,10.0,WNW,3.5,-,N/A,,Overcast,300,2013-03-10 07:36:00
9:56 PM,73.0,66.9,81,29.93,10.0,Calm,Calm,-,N/A,,Overcast,0,2013-03-10 07:56:00
10:56 PM,73.0,68.0,84,29.94,10.0,West,11.5,-,N/A,,Overcast,280,2013-03-10 08:56:00
11:08 PM,73.4,66.2,78,29.93,10.0,West,11.5,-,N/A,,Overcast,270,2013-03-10 09:08:00
11:17 PM,71.6,64.4,78,29.93,10.0,West,13.8,-,N/A,,Overcast,280,2013-03-10 09:17:00
11:56 PM,72.0,66.9,84,29.94,10.0,West,6.9,-,N/A,,Overcast,280,2013-03-10 09:56:00